Regional Weather Roundup
Issued by NWS

Home | Current Version | Previous Version | Graphics & Text | Print | Product List | Glossary On
Versions: 1 2 3 4 5 6 7 8 9 10 11 12 13 14 15 16 17 18 19 20 21 22 23 24 25 26 27 28 29 30 31 32 33 34 35 36 37 38 39 40 41 42 43 44 45 46 47 48 49 50
000
ASUS43 KMKX 270021
RWRWI

WISCONSIN REGIONAL WEATHER ROUNDUP
NATIONAL WEATHER SERVICE MILWAUKEE/SULLIVAN WI
700 PM CDT MON SEP 26 2016

NOTE: "FAIR" INDICATES FEW OR NO CLOUDS BELOW 12,000 FEET WITH NO
SIGNIFICANT WEATHER AND/OR OBSTRUCTIONS TO VISIBILITY.

WIZ001-002-006>008-014>016-023>028-270100-
NORTHWEST WISCONSIN

CITY           SKY/WX    TMP DP  RH WIND       PRES   REMARKS
SUPERIOR ARPT  CLOUDY    54  46  75 W12G17    29.75F
6HR MIN TEMP:  53; 6HR MAX TEMP:  56;

ASHLAND        LGT RAIN  50  47  89 W13       29.72F
6HR MIN TEMP:  50; 6HR MAX TEMP:  53; 6HR PCP:  0.11;

HAYWARD        CLOUDY    55  41  59 W7        29.77F
6HR MIN TEMP:  51; 6HR MAX TEMP:  56; 6HR PCP:  0.05;

SIREN          MOCLDY    58  38  47 W17G25    29.81F
6HR MIN TEMP:  57; 6HR MAX TEMP:  61;

CUMBERLAND     CLOUDY    55  36  47 W13G23    29.82S
RICE LAKE      MOCLDY    58  38  46 W10G20    29.83S
6HR MIN TEMP:  57; 6HR MAX TEMP:  62;

CHETEK         NOT AVBL
LADYSMITH      CLOUDY    57  41  55 W10       29.81S
6HR MIN TEMP:  55; 6HR MAX TEMP:  58;

EAU CLAIRE     CLEAR     58  38  47 W9        29.83F
6HR MIN TEMP:  58; 6HR MAX TEMP:  62;

MENOMONIE      PTCLDY    60  37  43 W12       29.85S
6HR MIN TEMP:  60; 6HR MAX TEMP:  64;

NEW RICHMOND   CLEAR     58  35  42 W9        29.86S
6HR MIN TEMP:  58; 6HR MAX TEMP:  62;

OSCEOLA        CLEAR     59  37  44 W9G16     29.88S
6HR MIN TEMP:  58; 6HR MAX TEMP:  63;

$$

WIZ003>005-009-010-017-018-270100-
NORTH CENTRAL WISCONSIN

CITY           SKY/WX    TMP DP  RH WIND       PRES   REMARKS
MANITOWISH WTR NOT AVBL
ARBOR VITAE    RAIN      51  48  90 W16G22    29.74S
6HR MIN TEMP:  50; 6HR MAX TEMP:  52;

WOODRUFF       RAIN      51  48  90 W16G22    29.74S
6HR MIN TEMP:  50; 6HR MAX TEMP:  52;

RHINELANDER    LGT RAIN  49  47  93 W10       29.76S
6HR MIN TEMP:  49; 6HR MAX TEMP:  57; 6HR PCP:  0.02;

EAGLE RIVER    RAIN      48  44  86 W13G23    29.72F
6HR MIN TEMP:  48; 6HR MAX TEMP:  51;

LAND O LAKES   DRIZZLE   48  46  92 W12G21    29.72S
6HR MIN TEMP:  48; 6HR MAX TEMP:  49;

PHILLIPS       DRIZZLE   51  43  74 W7        29.77S
6HR MIN TEMP:  51; 6HR MAX TEMP:  54;

TOMAHAWK       LGT RAIN  50  43  76 W6        29.78S
6HR MIN TEMP:  49; 6HR MAX TEMP:  56;

MEDFORD        CLOUDY    54  40  60 W7        29.79F
6HR MIN TEMP:  54; 6HR MAX TEMP:  57;

MERRILL        CLOUDY    54  42  63 W10       29.79S
6HR MIN TEMP:  53; 6HR MAX TEMP:  57;

$$

WIZ029-030-035-036-043>047-270100-
CENTRAL WISCONSIN

CITY           SKY/WX    TMP DP  RH WIND       PRES   REMARKS
WAUSAU         CLOUDY    56  40  55 W14G23    29.78F
6HR MIN TEMP:  55; 6HR MAX TEMP:  62; 6HR PCP: TRACE;

MOSINEE        PTCLDY    55  39  54 W13       29.82F
MARSHFIELD     CLEAR     55  40  56 W10       29.82F
6HR MIN TEMP:  55; 6HR MAX TEMP:  62;

STEVENS POINT  MOCLDY    55  38  51 W12G18    29.82F
6HR MIN TEMP:  55; 6HR MAX TEMP:  59;

WAUPACA        CLOUDY    60  38  44 W12G20    29.82F
6HR MIN TEMP:  60; 6HR MAX TEMP:  66;

WAUTOMA        PTCLDY    58  40  51 W12       29.85S
6HR MIN TEMP:  58; 6HR MAX TEMP:  65;

WISC RAPIDS    CLEAR     56  41  57 W8        29.85F
6HR MIN TEMP:  56; 6HR MAX TEMP:  64;

CAMP DOUGLAS   CLEAR     53  42  64 W8        29.86S
6HR MIN TEMP:  53; 6HR MAX TEMP:  64;

$$

WIZ011>013-019>022-031-037>040-048>050-270100-
NORTHEAST WISCONSIN

CITY           SKY/WX    TMP DP  RH WIND       PRES   REMARKS
ANTIGO         CLOUDY    51  42  72 W6        29.78S
6HR MIN TEMP:  50; 6HR MAX TEMP:  55;

SHAWANO        CLOUDY    58  41  53 W9        29.79S
6HR MIN TEMP:  58; 6HR MAX TEMP:  63;

OCONTO         NOT AVBL
STURGEON BAY   CLOUDY    57  42  57 W12       29.78R
6HR MIN TEMP:  57; 6HR MAX TEMP:  62;

GREEN BAY      CLOUDY    58  42  55 W6        29.80S
6HR MIN TEMP:  58; 6HR MAX TEMP:  64;

MANITOWOC      CLOUDY    60  38  43 W13       29.82R
6HR MIN TEMP:  60; 6HR MAX TEMP:  64;

APPLETON       MOCLDY    57  36  44 W10       29.81S
CLINTONVILLE   NOT AVBL
OSHKOSH        CLOUDY    58  40  51 VRB6      29.83R
6HR MIN TEMP:  58; 6HR MAX TEMP:  64;

$$

WIZ032>034-041-042-053>061-270100-
SOUTHWEST WISCONSIN

CITY           SKY/WX    TMP DP  RH WIND       PRES   REMARKS
LA CROSSE      CLEAR     63  34  33 W12       29.87S
6HR MIN TEMP:  63; 6HR MAX TEMP:  70;

SPARTA         CLEAR     56  41  57 CALM      29.88S
6HR MIN TEMP:  56; 6HR MAX TEMP:  66;

VIROQUA        PTCLDY    59  33  37 W7        29.90R
6HR MIN TEMP:  59; 6HR MAX TEMP:  67;

BOSCOBEL       CLEAR     65  34  31 W7G17     29.91R
6HR MIN TEMP:  65; 6HR MAX TEMP:  71; 6HR PCP: TRACE;

PRAIRIE DU CHI CLEAR     64  31  29 W12       29.91S
6HR MIN TEMP:  64; 6HR MAX TEMP:  70;

PLATTEVILLE    CLEAR     61  36  38 W13       29.93S
6HR MIN TEMP:  61; 6HR MAX TEMP:  68;

$$

WIZ056-057-062-063-064-067-068-270100-
SOUTH CENTRAL WISCONSIN

CITY           SKY/WX    TMP DP  RH WIND       PRES   REMARKS
REEDSBURG      NOT AVBL
BARABOO/DELLS  CLEAR     57  36  45 W5        29.88R
6HR MIN TEMP:  57; 6HR MAX TEMP:  66;

LONE ROCK      CLEAR     62  35  36 W9        29.89S
6HR MIN TEMP:  62; 6HR MAX TEMP:  68;

MINERAL POINT  CLEAR     61  32  33 W10G20    29.91S
MADISON        PTCLDY    61  35  37 VRB3      29.87S
6HR MIN TEMP:  61; 6HR MAX TEMP:  66;

MIDDLETON      NOT AVBL
WATERTOWN      PTCLDY    60  37  40 W6        29.87R
6HR MIN TEMP:  60; 6HR MAX TEMP:  66;

MONROE         CLEAR     61  32  33 W13       29.92S
JANESVILLE     CLEAR     64  34  32 W10G17    29.90S
$$

WIZ051-052-058>065-066-070>072-270100-
SOUTHEAST WISCONSIN

CITY           SKY/WX    TMP DP  RH WIND       PRES   REMARKS
MILWAUKEE      MOCLDY    65  35  33 W8        29.87S
6HR MIN TEMP:  65; 6HR MAX TEMP:  68;

WAUKESHA       PTCLDY    59  34  38 W12G23    29.88S
MILWAUKEE/TIMM PTCLDY    61  32  33 W8        29.87S
RACINE         PTCLDY    63  34  33 W8G16     29.89S
6HR MIN TEMP:  63; 6HR MAX TEMP:  67;

BURLINGTON     PTCLDY    59  33  37 W6        29.89S
6HR MIN TEMP:  59; 6HR MAX TEMP:  66;

KENOSHA        CLEAR     62  35  36 W12       29.90R
6HR MIN TEMP:  62; 6HR MAX TEMP:  68;

FOND DU LAC    MOCLDY    58  39  49 W7        29.85R
6HR MIN TEMP:  57; 6HR MAX TEMP:  65; 6HR PCP: TRACE;

SHEBOYGAN      PTCLDY    59  38  45 W8        29.83S
6HR MIN TEMP:  59; 6HR MAX TEMP:  65; 6HR PCP: TRACE;

WEST BEND      PTCLDY    57  34  41 W6        29.85S
JUNEAU         CLEAR     59  37  44 W7        29.87S
6HR MIN TEMP:  59; 6HR MAX TEMP:  64;

$$

LSZ147-162-270100-
LAKE SUPERIOR

STATION/POSITION TIME  TEMP    WIND        PRES    WAVE
                       AIR SEA DIR/SP/G            HT/PER
                 (UTC) (F)     (DEG/KT/KT) (MB)    (FT/S)
W MID LAKE BUOY  2350   51 47  250/ 25/ 31 1001.1S   7/ 7
DEVILS ISLAND    0000   53     250/ 28/ 35 1004.0S
SAXON HARBOR     2340   52     200/  9/ 15 1006.1S
$$

LMZ867-665-643>646-270100-
LAKE MICHIGAN

STATION/POSITION TIME  TEMP    WIND        PRES    WAVE
                       AIR SEA DIR/SP/G            HT/PER
                 (UTC) (F)     (DEG/KT/KT) (MB)    (FT/S)
CHAMBERS ISLAND  2300   58     230/ 13/ 22 1007.1
N MID LAKE BUOY  2350   59 67  250/ 27/ 35 1004.8R   6/ 6
NORTHPORT PIER   0000   57     250/  9/ 15 1006.8S
KEWAUNEE LAKESHO 2300   61     280/ 11/ 17 1008.2R
SHEBOYGAN LAKESH 0000   62     280/  8C1F1C2F2C3F3C4F4C5F5C6F6C7F7C8M1C9M2Ca!


USA.gov is the U.S. government's official web portal to all federal, state and local government web resources and services.